TimeAKDT,TemperatureF,Dew PointF,Humidity,Sea Level PressureIn,VisibilityMPH,Wind Direction,Wind SpeedMPH,Gust SpeedMPH,PrecipitationIn,Events,Conditions,WindDirDegrees,DateUTC
12:16 AM,19.4,12.2,74,30.15,10.0,NNW,4.6,-,N/A,,Clear,340,2012-10-18 08:16:00
12:36 AM,17.6,15.8,93,30.15,10.0,NW,8.1,-,N/A,,Clear,310,2012-10-18 08:36:00
12:56 AM,17.6,15.8,93,30.15,10.0,NW,6.9,-,N/A,,Clear,310,2012-10-18 08:56:00
1:16 AM,17.6,15.8,93,30.15,10.0,NW,6.9,-,N/A,,Clear,310,2012-10-18 09:16:00
1:36 AM,17.6,12.2,79,30.16,10.0,West,4.6,-,N/A,,Clear,280,2012-10-18 09:36:00
1:56 AM,17.6,15.8,93,30.16,10.0,WNW,6.9,-,N/A,,Clear,300,2012-10-18 09:56:00
2:16 AM,17.6,14.0,86,30.16,10.0,WNW,9.2,-,N/A,,Clear,290,2012-10-18 10:16:00
2:36 AM,17.6,14.0,86,30.16,10.0,WNW,8.1,-,N/A,,Mostly Cloudy,290,2012-10-18 10:36:00
2:56 AM,17.6,15.8,93,30.16,10.0,NW,6.9,-,N/A,,Overcast,310,2012-10-18 10:56:00
3:16 AM,19.4,17.6,93,30.16,10.0,NW,9.2,-,N/A,,Mostly Cloudy,310,2012-10-18 11:16:00
3:36 AM,19.4,12.2,74,30.16,10.0,Calm,Calm,-,N/A,,Mostly Cloudy,0,2012-10-18 11:36:00
3:56 AM,19.4,14.0,80,30.17,10.0,SE,3.5,-,N/A,,Partly Cloudy,130,2012-10-18 11:56:00
4:16 AM,19.4,15.8,86,30.16,10.0,Calm,Calm,-,N/A,,Clear,0,2012-10-18 12:16:00
4:36 AM,17.6,14.0,86,30.16,10.0,NW,9.2,-,N/A,,Clear,320,2012-10-18 12:36:00
4:56 AM,19.4,14.0,80,30.16,10.0,NNW,8.1,-,N/A,,Clear,330,2012-10-18 12:56:00
5:16 AM,19.4,15.8,86,30.16,10.0,NW,11.5,-,N/A,,Clear,320,2012-10-18 13:16:00
5:36 AM,19.4,15.8,86,30.17,10.0,NW,10.4,-,N/A,,Clear,310,2012-10-18 13:36:00
5:56 AM,19.4,15.8,86,30.17,10.0,NW,9.2,-,N/A,,Clear,320,2012-10-18 13:56:00
6:16 AM,21.2,15.8,80,30.17,10.0,NW,8.1,-,N/A,,Mostly Cloudy,320,2012-10-18 14:16:00
6:36 AM,23.0,17.6,80,30.17,10.0,NW,8.1,-,N/A,,Overcast,310,2012-10-18 14:36:00
6:56 AM,23.0,19.4,86,30.17,10.0,WNW,9.2,-,N/A,,Overcast,300,2012-10-18 14:56:00
7:16 AM,23.0,19.4,86,30.18,10.0,WNW,9.2,-,N/A,,Overcast,300,2012-10-18 15:16:00
7:36 AM,24.8,17.6,74,30.18,10.0,WNW,5.8,-,N/A,,Overcast,300,2012-10-18 15:36:00
7:56 AM,26.6,19.4,74,30.18,10.0,NNW,8.1,-,N/A,,Overcast,330,2012-10-18 15:56:00
8:16 AM,26.6,19.4,74,30.19,10.0,NNW,9.2,-,N/A,,Overcast,330,2012-10-18 16:16:00
8:36 AM,26.6,19.4,74,30.19,10.0,NW,9.2,-,N/A,,Overcast,320,2012-10-18 16:36:00
8:56 AM,26.6,17.6,69,30.19,10.0,NW,5.8,-,N/A,,Overcast,320,2012-10-18 16:56:00
9:16 AM,26.6,17.6,69,30.19,10.0,North,8.1,-,N/A,,Overcast,350,2012-10-18 17:16:00
9:36 AM,26.6,17.6,69,30.20,10.0,NW,5.8,-,N/A,,Mostly Cloudy,320,2012-10-18 17:36:00
9:56 AM,24.8,17.6,74,30.20,10.0,West,5.8,-,N/A,,Partly Cloudy,280,2012-10-18 17:56:00
10:16 AM,21.2,17.6,86,30.21,10.0,WNW,8.1,-,N/A,,Clear,300,2012-10-18 18:16:00
10:36 AM,23.0,17.6,80,30.21,10.0,NW,9.2,-,N/A,,Clear,320,2012-10-18 18:36:00
10:56 AM,23.0,17.6,80,30.21,10.0,NW,10.4,-,N/A,,Clear,320,2012-10-18 18:56:00
11:16 AM,24.8,17.6,74,30.21,10.0,NW,6.9,-,N/A,,Clear,310,2012-10-18 19:16:00
11:36 AM,24.8,17.6,74,30.21,10.0,NW,11.5,-,N/A,,Clear,320,2012-10-18 19:36:00
11:56 AM,24.8,19.4,80,30.22,10.0,NW,10.4,-,N/A,,Clear,310,2012-10-18 19:56:00
12:16 PM,26.6,19.4,74,30.23,10.0,NW,9.2,-,N/A,,Clear,310,2012-10-18 20:16:00
12:36 PM,28.4,19.4,69,30.22,10.0,NW,11.5,-,N/A,,Clear,310,2012-10-18 20:36:00
12:56 PM,28.4,19.4,69,30.22,10.0,NNW,10.4,-,N/A,,Clear,330,2012-10-18 20:56:00
1:16 PM,28.4,19.4,69,30.23,10.0,NW,9.2,-,N/A,,Clear,320,2012-10-18 21:16:00
1:36 PM,30.2,17.6,60,30.23,10.0,NNW,5.8,-,N/A,,Clear,340,2012-10-18 21:36:00
1:56 PM,30.2,17.6,60,30.23,10.0,NNW,8.1,-,N/A,,Clear,330,2012-10-18 21:56:00
2:16 PM,30.2,17.6,60,30.23,10.0,NNW,6.9,-,N/A,,Clear,340,2012-10-18 22:16:00
2:36 PM,30.2,17.6,60,30.23,10.0,NNW,10.4,-,N/A,,Clear,330,2012-10-18 22:36:00
2:56 PM,32.0,17.6,55,30.23,10.0,NNW,10.4,-,N/A,,Clear,330,2012-10-18 22:56:00
3:16 PM,32.0,17.6,55,30.24,10.0,NNW,8.1,-,N/A,,Clear,340,2012-10-18 23:16:00
3:36 PM,32.0,19.4,60,30.24,10.0,NNW,8.1,-,N/A,,Clear,330,2012-10-18 23:36:00
3:56 PM,32.0,19.4,60,30.24,10.0,WNW,11.5,-,N/A,,Clear,300,2012-10-18 23:56:00
4:16 PM,32.0,17.6,55,30.24,10.0,NW,10.4,-,N/A,,Clear,320,2012-10-19 00:16:00
4:36 PM,32.0,17.6,55,30.24,10.0,NNW,11.5,-,N/A,,Clear,330,2012-10-19 00:36:00
4:56 PM,32.0,17.6,55,30.24,10.0,NW,9.2,-,N/A,,Clear,310,2012-10-19 00:56:00
5:36 PM,30.2,19.4,64,30.24,10.0,WNW,16.1,-,N/A,,Clear,300,2012-10-19 01:36:00
5:56 PM,30.2,21.2,69,30.24,10.0,WNW,11.5,-,N/A,,Clear,300,2012-10-19 01:56:00
6:16 PM,28.4,21.2,74,30.24,10.0,WNW,15.0,-,N/A,,Clear,300,2012-10-19 02:16:00
6:36 PM,28.4,21.2,74,30.24,10.0,WNW,10.4,-,N/A,,Clear,290,2012-10-19 02:36:00
6:56 PM,26.6,21.2,80,30.24,10.0,WNW,11.5,-,N/A,,Clear,290,2012-10-19 02:56:00
7:16 PM,26.6,21.2,80,30.24,10.0,WNW,10.4,-,N/A,,Clear,290,2012-10-19 03:16:00
7:36 PM,24.8,19.4,80,30.24,10.0,WNW,9.2,-,N/A,,Clear,290,2012-10-19 03:36:00
7:56 PM,24.8,21.2,86,30.24,10.0,West,11.5,-,N/A,,Clear,280,2012-10-19 03:56:00
8:16 PM,24.8,21.2,86,30.24,10.0,WNW,12.7,-,N/A,,Clear,290,2012-10-19 04:16:00
8:36 PM,24.8,21.2,86,30.24,10.0,WNW,11.5,-,N/A,,Clear,290,2012-10-19 04:36:00
8:56 PM,24.8,19.4,80,30.25,10.0,West,10.4,-,N/A,,Clear,280,2012-10-19 04:56:00
9:16 PM,24.8,19.4,80,30.25,10.0,West,9.2,-,N/A,,Clear,280,2012-10-19 05:16:00
9:36 PM,24.8,21.2,86,30.25,10.0,West,9.2,-,N/A,,Clear,280,2012-10-19 05:36:00
9:56 PM,24.8,19.4,80,30.25,10.0,West,8.1,-,N/A,,Clear,280,2012-10-19 05:56:00
10:16 PM,24.8,19.4,80,30.26,10.0,West,8.1,-,N/A,,Clear,280,2012-10-19 06:16:00
10:36 PM,24.8,21.2,86,30.26,10.0,West,8.1,-,N/A,,Partly Cloudy,270,2012-10-19 06:36:00
10:56 PM,26.6,21.2,80,30.26,10.0,West,11.5,-,N/A,,Mostly Cloudy,280,2012-10-19 06:56:00
11:16 PM,26.6,23.0,86,30.26,10.0,West,10.4,-,N/A,,Overcast,280,2012-10-19 07:16:00
11:36 PM,26.6,21.2,80,30.27,10.0,West,10.4,-,N/A,,Overcast,280,2012-10-19 07:36:00
11:56 PM,28.4,21.2,74,30.27,10.0,West,9.2,-,N/A,,Overcast,260,2012-10-19 07:56:00